| time (UTC) | temp C | wind direction | speed KPH | gust KPH | rain 1hr cm | rain 24hr cm | rain mn cm | humidity % | barometer mb |
| 20260505224513 | 7 | 360 | 3.2 | 16.1 | 0.05 | 0.86 | 0.86 | 78 | 1006.7 |
| 20260505223008 | 6 | 360 | 3.2 | 17.7 | 0.05 | 0.86 | 0.86 | 81 | 1006.9 |
| 20260505221508 | 5 | 360 | 4.8 | 24.1 | 0.05 | 0.86 | 0.86 | 83 | 1007.2 |
| 20260505220006 | 8 | 360 | 9.7 | 37.0 | 0.03 | 0.84 | 0.84 | 71 | 1007.1 |
| 20260505214505 | 11 | 360 | 3.2 | 27.4 | 0.00 | 0.81 | 0.81 | 57 | 1005.9 |
| 20260505213007 | 10 | 360 | 3.2 | 14.5 | 0.00 | 0.81 | 0.81 | 68 | 1006.2 |
| 20260505211507 | 8 | 360 | 3.2 | 14.5 | 0.00 | 0.81 | 0.81 | 69 | 1006.3 |
| 20260505210100 | 9 | 360 | 11.3 | 27.4 | 0.00 | 0.81 | 0.81 | 67 | 1006.7 |
| 20260505204558 | 10 | 360 | 4.8 | 38.6 | 0.00 | 0.81 | 0.81 | 67 | 1006.5 |
| 20260505203120 | 10 | 360 | 6.4 | 16.1 | 0.00 | 0.81 | 0.81 | 70 | 1006.3 |
| 20260505201601 | 10 | 360 | 8.0 | 20.9 | 0.10 | 0.81 | 0.81 | 76 | 1006.3 |
| 20260505200054 | 8 | 360 | 1.6 | 14.5 | 0.10 | 0.81 | 0.81 | 81 | 1006.5 |
| 20260505194549 | 6 | 360 | 4.8 | 12.9 | 0.10 | 0.81 | 0.81 | 90 | 1006.7 |
| 20260505193047 | 5 | 360 | 4.8 | 19.3 | 0.10 | 0.81 | 0.81 | 84 | 1007.3 |
| 20260505191645 | 7 | 360 | 9.7 | 22.5 | 0.00 | 0.71 | 0.71 | 71 | 1007.6 |
| 20260505190044 | 8 | 360 | 8.0 | 24.1 | 0.00 | 0.71 | 0.71 | 78 | 1006.4 |
| 20260505184542 | 8 | 360 | 4.8 | 22.5 | 0.00 | 0.71 | 0.71 | 73 | 1006.5 |
| 20260505183042 | 8 | 360 | 4.8 | 25.7 | 0.00 | 0.71 | 0.71 | 78 | 1006.6 |
| 20260505181548 | 8 | 360 | 11.3 | 25.7 | 0.00 | 0.71 | 0.71 | 77 | 1006.6 |
| 20260505180039 | 8 | 360 | 3.2 | 20.9 | 0.00 | 0.71 | 0.71 | 83 | 1006.4 |
| 20260505174541 | 8 | 360 | 6.4 | 14.5 | 0.03 | 0.71 | 0.71 | 86 | 1006.1 |
| 20260505173033 | 7 | 360 | 4.8 | 16.1 | 0.10 | 0.71 | 0.71 | 87 | 1006.3 |
| 20260505171533 | 6 | 360 | 1.6 | 6.4 | 0.28 | 0.71 | 0.71 | 89 | 1006.2 |
| 20260505170038 | 6 | 360 | 3.2 | 9.7 | 0.33 | 0.71 | 0.71 | 90 | 1006.1 |
| 20260505164532 | 4 | 360 | 3.2 | 16.1 | 0.33 | 0.69 | 0.69 | 88 | 1006.2 |
| 20260505163034 | 5 | 360 | 3.2 | 12.9 | 0.23 | 0.58 | 0.58 | 86 | 1006.4 |
| 20260505161529 | 6 | 360 | 0.0 | 8.0 | 0.08 | 0.43 | 0.43 | 87 | 1005.9 |
| 20260505153026 | 6 | 360 | 6.4 | 14.5 | 0.03 | 0.36 | 0.36 | 86 | 1005.7 |
| 20260505151524 | 6 | 360 | 3.2 | 9.7 | 0.08 | 0.36 | 0.36 | 90 | 1005.9 |
| 20260505124513 | 4 | 360 | 0.0 | 0.0 | 0.08 | 0.15 | 0.15 | 90 | 1004.7 |
| 20260505123011 | 4 | 360 | 0.0 | 4.8 | 0.08 | 0.13 | 0.13 | 89 | 1004.9 |
| 20260505121513 | 4 | 360 | 1.6 | 4.8 | 0.10 | 0.13 | 0.13 | 88 | 1005.0 |
| 20260505120006 | 4 | 360 | 0.0 | 12.9 | 0.08 | 0.10 | 0.10 | 88 | 1005.2 |
| 20260505114504 | 5 | 360 | 1.6 | 6.4 | 0.08 | 0.08 | 0.08 | 87 | 1005.5 |
| 20260505113007 | 5 | 360 | 1.6 | 12.9 | 0.05 | 0.05 | 0.05 | 87 | 1005.7 |
| 20260505111501 | 5 | 360 | 3.2 | 14.5 | 0.03 | 0.03 | 0.03 | 87 | 1005.6 |
| 20260505101557 | 6 | 360 | 8.0 | 24.1 | 0.00 | 0.00 | 0.00 | 80 | 1005.6 |
| 20260505100057 | 6 | 360 | 6.4 | 25.7 | 0.00 | 0.00 | 0.00 | 81 | 1005.8 |
| 20260505094550 | 6 | 360 | 6.4 | 25.7 | 0.00 | 0.00 | 0.00 | 81 | 1005.9 |
| 20260505093049 | 6 | 360 | 6.4 | 22.5 | 0.00 | 0.00 | 0.00 | 81 | 1005.7 |
| 20260505091547 | 6 | 360 | 11.3 | 32.2 | 0.00 | 0.00 | 0.00 | 81 | 1005.8 |
| 20260505090057 | 6 | 360 | 6.4 | 30.6 | 0.00 | 0.00 | 0.00 | 81 | 1006.0 |
| 20260505084548 | 6 | 360 | 11.3 | 22.5 | 0.00 | 0.00 | 0.00 | 81 | 1006.1 |
| 20260505083040 | 6 | 360 | 8.0 | 22.5 | 0.00 | 0.00 | 0.00 | 80 | 1006.4 |
| 20260505081543 | 6 | 360 | 6.4 | 27.4 | 0.00 | 0.00 | 0.00 | 81 | 1006.5 |
| 20260505080037 | 6 | 360 | 6.4 | 22.5 | 0.00 | 0.00 | 0.00 | 78 | 1006.7 |
| 20260505074532 | 6 | 360 | 8.0 | 29.0 | 0.00 | 0.00 | 0.00 | 77 | 1006.6 |
| 20260505073037 | 6 | 360 | 6.4 | 20.9 | 0.00 | 0.00 | 0.00 | 77 | 1006.7 |
| 20260505071527 | 7 | 360 | 3.2 | 8.0 | 0.00 | 0.00 | 0.00 | 75 | 1007.0 |
| 20260505070024 | 7 | 360 | 3.2 | 14.5 | 0.00 | 0.00 | 0.00 | 75 | 1007.2 |
| 20260505064525 | 7 | 360 | 3.2 | 6.4 | 0.00 | 0.00 | 0.00 | 74 | 1007.4 |
| 20260505063024 | 7 | 360 | 4.8 | 17.7 | 0.00 | 0.00 | 0.00 | 73 | 1007.2 |
| 20260505061522 | 7 | 360 | 9.7 | 25.7 | 0.00 | 0.00 | 0.00 | 73 | 1007.2 |
| 20260505060029 | 7 | 360 | 9.7 | 22.5 | 0.00 | 0.00 | 0.00 | 72 | 1007.3 |
| 20260505054531 | 7 | 360 | 4.8 | 32.2 | 0.00 | 0.00 | 0.00 | 71 | 1006.6 |
| 20260505053017 | 7 | 360 | 8.0 | 29.0 | 0.00 | 0.00 | 0.00 | 69 | 1007.1 |
| 20260505051514 | 7 | 360 | 9.7 | 25.7 | 0.00 | 0.00 | 0.00 | 67 | 1007.0 |
| 20260505041509 | 7 | 360 | 4.8 | 25.7 | 0.00 | 0.00 | 0.00 | 65 | 1007.8 |
| 20260505040008 | 7 | 360 | 8.0 | 29.0 | 0.00 | 0.00 | 0.00 | 64 | 1007.7 |
| 20260505034506 | 7 | 360 | 6.4 | 20.9 | 0.00 | 0.00 | 0.00 | 63 | 1007.6 |
| 20260505033013 | 7 | 360 | 8.0 | 25.7 | 0.00 | 0.00 | 0.00 | 63 | 1007.5 |
| 20260505031504 | 7 | 360 | 6.4 | 16.1 | 0.00 | 0.00 | 0.00 | 63 | 1007.5 |
| 20260505030003 | 7 | 360 | 1.6 | 16.1 | 0.00 | 0.00 | 0.00 | 62 | 1007.2 |
| 20260505024504 | 7 | 360 | 8.0 | 19.3 | 0.00 | 0.00 | 0.00 | 62 | 1007.2 |
| 20260505023108 | 8 | 360 | 3.2 | 25.7 | 0.00 | 0.00 | 0.00 | 61 | 1006.6 |
| 20260505021600 | 8 | 360 | 11.3 | 29.0 | 0.00 | 0.00 | 0.00 | 61 | 1006.1 |
| 20260505020057 | 8 | 360 | 11.3 | 32.2 | 0.00 | 0.00 | 0.00 | 60 | 1005.9 |
| 20260505014555 | 8 | 360 | 6.4 | 24.1 | 0.00 | 0.00 | 0.00 | 57 | 1005.9 |
| 20260505013053 | 9 | 360 | 12.9 | 33.8 | 0.00 | 0.00 | 0.00 | 54 | 1005.4 |
| 20260505011559 | 10 | 360 | 11.3 | 35.4 | 0.00 | 0.00 | 0.00 | 52 | 1005.8 |
| 20260505010054 | 10 | 360 | 12.9 | 33.8 | 0.00 | 0.00 | 0.00 | 50 | 1005.7 |
| 20260505004554 | 10 | 360 | 14.5 | 30.6 | 0.00 | 0.00 | 0.00 | 49 | 1006.1 |
| 20260505003049 | 11 | 360 | 11.3 | 27.4 | 0.00 | 0.00 | 0.00 | 46 | 1006.7 |
| 20260505001549 | 11 | 360 | 9.7 | 24.1 | 0.00 | 0.00 | 0.00 | 45 | 1006.9 |
| 20260505000050 | 11 | 360 | 11.3 | 24.1 | 0.00 | 0.00 | 0.00 | 43 | 1007.1 |
| 20260504234614 | 12 | 360 | 4.8 | 19.3 | 0.00 | 0.00 | 0.00 | 42 | 1007.1 |
| 20260504233149 | 12 | 360 | 9.7 | 30.6 | 0.00 | 0.00 | 0.00 | 38 | 1007.3 |
| 20260504231554 | 13 | 360 | 11.3 | 33.8 | 0.00 | 0.00 | 0.00 | 33 | 1007.0 |
| 20260504230045 | 14 | 360 | 6.4 | 25.7 | 0.00 | 0.00 | 0.00 | 31 | 1006.8 |